• In Netherlands
  • List of Countries
  • For 7 days
  • Water Temperature
  • Satellite Maps
  • Weather Map
  • Weather Widgets
  • user-avatar
    Login

    Hourly Weather Hasselt

    Today, 23 May, Tuesday

    Time Temperature Precipitation Wind Pressure Humidity
    00:00 +16°C° 0 mm 3 mps 758 mmHg 86%
    01:00 +14°C° 0 mm 3 mps 758 mmHg 87%
    02:00 +14°C° 0 mm 3 mps 758 mmHg 89%
    03:00 +14°C° 0 mm 3 mps 758 mmHg 91%
    04:00 +14°C° 0 mm 3 mps 758 mmHg 90%
    05:00 +16°C° 0 mm 3 mps 758 mmHg 88%
    06:00 +17°C° 0 mm 3 mps 759 mmHg 87%
    07:00 +18°C° 0 mm 4 mps 759 mmHg 84%
    08:00 +19°C° 0 mm 4 mps 759 mmHg 81%
    09:00 +21°C° 0 mm 4 mps 759 mmHg 78%
    10:00 +21°C° 0.1 mm 5 mps 760 mmHg 75%
    11:00 +21°C° 0.1 mm 5 mps 760 mmHg 72%
    12:00 +22°C° 0.1 mm 6 mps 760 mmHg 70%
    13:00 +21°C° 0 mm 6 mps 761 mmHg 69%
    14:00 +21°C° 0 mm 6 mps 761 mmHg 69%
    15:00 +20°C° 0 mm 6 mps 761 mmHg 69%
    16:00 +19°C° 0 mm 5 mps 762 mmHg 72%
    17:00 +17°C° 0 mm 5 mps 762 mmHg 75%
    18:00 +17°C° 0 mm 4 mps 763 mmHg 79%
    19:00 +16°C° 0 mm 3 mps 763 mmHg 82%
    20:00 +13°C° 0 mm 3 mps 764 mmHg 86%
    21:00 +12°C° 0 mm 2 mps 764 mmHg 90%
    22:00 +10°C° 0 mm 2 mps 764 mmHg 90%
    23:00 +10°C° 0 mm 1 mps 765 mmHg 91%

    Tomorrow, 24 May, Wednesday

    Time Temperature Precipitation Wind Pressure Humidity
    00:00 +9°C° 0 mm 1 mps 765 mmHg 92%
    01:00 +9°C° 0 mm 1 mps 765 mmHg 91%
    02:00 +9°C° 0 mm 1 mps 765 mmHg 90%
    03:00 +9°C° 0 mm 1 mps 765 mmHg 90%
    04:00 +11°C° 0 mm 1 mps 765 mmHg 87%
    05:00 +12°C° 0 mm 1 mps 765 mmHg 83%
    06:00 +14°C° 0 mm 2 mps 765 mmHg 80%
    07:00 +16°C° 0 mm 2 mps 765 mmHg 77%
    08:00 +17°C° 0 mm 2 mps 765 mmHg 75%
    09:00 +19°C° 0 mm 2 mps 765 mmHg 72%
    10:00 +20°C° 0.1 mm 2 mps 765 mmHg 71%
    11:00 +21°C° 0.1 mm 3 mps 765 mmHg 69%
    12:00 +22°C° 0.1 mm 3 mps 765 mmHg 68%
    13:00 +22°C° 0.1 mm 3 mps 765 mmHg 68%
    14:00 +22°C° 0.1 mm 4 mps 764 mmHg 67%
    15:00 +22°C° 0.1 mm 4 mps 764 mmHg 67%
    16:00 +21°C° 0 mm 4 mps 764 mmHg 71%
    17:00 +20°C° 0 mm 3 mps 764 mmHg 74%
    18:00 +20°C° 0 mm 3 mps 764 mmHg 78%
    19:00 +18°C° 0 mm 3 mps 765 mmHg 82%
    20:00 +16°C° 0 mm 3 mps 765 mmHg 87%
    21:00 +14°C° 0 mm 2 mps 765 mmHg 92%
    22:00 +13°C° 0 mm 2 mps 765 mmHg 93%
    23:00 +13°C° 0 mm 2 mps 765 mmHg 94%

    Day after tomorrow, 25 May, Thursday

    Time Temperature Precipitation Wind Pressure Humidity
    00:00 +12°C° 0 mm 2 mps 765 mmHg 95%
    01:00 +12°C° 0 mm 2 mps 765 mmHg 96%
    02:00 +12°C° 0 mm 1 mps 765 mmHg 96%
    03:00 +11°C° 0 mm 1 mps 765 mmHg 97%
    04:00 +12°C° 0 mm 1 mps 765 mmHg 94%
    05:00 +13°C° 0 mm 1 mps 765 mmHg 92%
    06:00 +15°C° 0 mm 1 mps 765 mmHg 90%
    07:00 +16°C° 0 mm 1 mps 765 mmHg 85%
    08:00 +18°C° 0 mm 2 mps 765 mmHg 79%
    09:00 +19°C° 0 mm 2 mps 765 mmHg 74%
    10:00 +20°C° 0 mm 2 mps 765 mmHg 72%
    11:00 +21°C° 0 mm 2 mps 765 mmHg 71%
    12:00 +21°C° 0 mm 2 mps 764 mmHg 69%
    13:00 +21°C° 0 mm 2 mps 764 mmHg 69%
    14:00 +23°C° 0 mm 2 mps 764 mmHg 69%
    15:00 +23°C° 0 mm 2 mps 764 mmHg 70%
    16:00 +21°C° 0 mm 2 mps 763 mmHg 73%
    17:00 +21°C° 0 mm 2 mps 763 mmHg 77%
    18:00 +21°C° 0 mm 2 mps 763 mmHg 80%
    19:00 +19°C° 0 mm 2 mps 763 mmHg 85%
    20:00 +17°C° 0 mm 2 mps 764 mmHg 89%
    21:00 +16°C° 0 mm 2 mps 764 mmHg 93%
    22:00 +15°C° 0 mm 2 mps 764 mmHg 94%
    23:00 +15°C° 0 mm 2 mps 764 mmHg 95%

    26 May, Friday

    Time Temperature Precipitation Wind Pressure Humidity
    00:00 +14°C° 0 mm 2 mps 764 mmHg 96%
    01:00 +14°C° 0 mm 2 mps 764 mmHg 97%
    02:00 +13°C° 0 mm 2 mps 763 mmHg 97%
    03:00 +13°C° 0 mm 2 mps 763 mmHg 97%
    04:00 +13°C° 0 mm 3 mps 763 mmHg 95%
    05:00 +13°C° 0 mm 3 mps 763 mmHg 93%
    06:00 +14°C° 0 mm 3 mps 763 mmHg 90%
    07:00 +17°C° 0 mm 3 mps 763 mmHg 85%
    08:00 +18°C° 0 mm 3 mps 763 mmHg 79%
    09:00 +19°C° 0 mm 3 mps 763 mmHg 74%
    10:00 +20°C° 0 mm 4 mps 763 mmHg 72%
    11:00 +21°C° 0 mm 4 mps 763 mmHg 69%
    12:00 +22°C° 0 mm 4 mps 762 mmHg 67%
    13:00 +22°C° 0 mm 4 mps 762 mmHg 68%
    14:00 +23°C° 0 mm 4 mps 762 mmHg 68%
    15:00 +23°C° 0 mm 4 mps 762 mmHg 69%
    16:00 +22°C° 0 mm 4 mps 762 mmHg 73%
    17:00 +21°C° 0 mm 4 mps 761 mmHg 77%
    18:00 +21°C° 0 mm 4 mps 761 mmHg 81%
    19:00 +19°C° 0 mm 4 mps 762 mmHg 86%
    20:00 +17°C° 0 mm 4 mps 762 mmHg 90%
    21:00 +16°C° 0 mm 3 mps 762 mmHg 94%
    22:00 +14°C° 0 mm 3 mps 762 mmHg 94%
    23:00 +14°C° 0 mm 3 mps 762 mmHg 94%

    27 May, Saturday

    Time Temperature Precipitation Wind Pressure Humidity
    00:00 +13°C° 0 mm 3 mps 762 mmHg 94%
    01:00 +13°C° 0 mm 3 mps 762 mmHg 94%
    02:00 +12°C° 0 mm 3 mps 762 mmHg 93%
    03:00 +12°C° 0 mm 3 mps 762 mmHg 93%
    04:00 +13°C° 0 mm 3 mps 762 mmHg 89%
    05:00 +14°C° 0 mm 4 mps 762 mmHg 85%
    06:00 +14°C° 0 mm 4 mps 762 mmHg 81%
    07:00 +17°C° 0 mm 4 mps 762 mmHg 76%
    08:00 +19°C° 0 mm 5 mps 762 mmHg 72%
    09:00 +21°C° 0 mm 5 mps 762 mmHg 67%
    10:00 +22°C° 0 mm 5 mps 761 mmHg 64%
    11:00 +23°C° 0 mm 6 mps 761 mmHg 62%
    12:00 +24°C° 0 mm 6 mps 761 mmHg 59%
    13:00 +24°C° 0 mm 6 mps 761 mmHg 60%
    14:00 +26°C° 0 mm 6 mps 760 mmHg 60%
    15:00 +26°C° 0 mm 6 mps 760 mmHg 61%
    16:00 +25°C° 0 mm 5 mps 760 mmHg 65%
    17:00 +23°C° 0 mm 5 mps 760 mmHg 70%
    18:00 +22°C° 0 mm 4 mps 760 mmHg 75%
    19:00 +21°C° 0 mm 4 mps 760 mmHg 76%
    20:00 +19°C° 0 mm 4 mps 761 mmHg 78%
    21:00 +18°C° 0 mm 4 mps 761 mmHg 79%
    22:00 +17°C° 0 mm 4 mps 761 mmHg 78%
    23:00 +17°C° 0 mm 4 mps 761 mmHg 78%

    28 May, Sunday

    Time Temperature Precipitation Wind Pressure Humidity
    00:00 +15°C° 0 mm 4 mps 761 mmHg 77%
    01:00 +15°C° 0 mm 4 mps 761 mmHg 77%
    02:00 +14°C° 0 mm 4 mps 761 mmHg 77%
    03:00 +14°C° 0 mm 4 mps 761 mmHg 77%
    04:00 +14°C° 0 mm 5 mps 761 mmHg 76%
    05:00 +15°C° 0 mm 5 mps 761 mmHg 75%
    06:00 +15°C° 0 mm 5 mps 761 mmHg 75%
    07:00 +17°C° 0 mm 5 mps 760 mmHg 72%
    08:00 +20°C° 0 mm 5 mps 760 mmHg 69%
    09:00 +22°C° 0 mm 5 mps 760 mmHg 66%
    10:00 +23°C° 0 mm 4 mps 760 mmHg 65%
    11:00 +26°C° 0 mm 4 mps 760 mmHg 64%
    12:00 +27°C° 0 mm 4 mps 759 mmHg 63%
    13:00 +28°C° 0 mm 4 mps 759 mmHg 64%
    14:00 +28°C° 0 mm 4 mps 759 mmHg 64%
    15:00 +29°C° 0 mm 4 mps 759 mmHg 65%
    16:00 +28°C° 0.2 mm 3 mps 759 mmHg 71%
    17:00 +27°C° 0.2 mm 3 mps 759 mmHg 77%
    18:00 +26°C° 0.2 mm 2 mps 759 mmHg 83%
    19:00 +25°C° 0.1 mm 2 mps 759 mmHg 86%
    20:00 +24°C° 0.1 mm 2 mps 759 mmHg 89%
    21:00 +23°C° 0.1 mm 2 mps 759 mmHg 91%
    22:00 +21°C° 0 mm 2 mps 759 mmHg 92%
    23:00 +21°C° 0 mm 2 mps 759 mmHg 92%
    Show more